Погода в Петруни

Погода в Петруни : погода сейчас, прогноз погоды и архив. Всё, что Вы хотите узнать о погоде в Петруни!

Поиск расширенной информации на нашем сайте:

Другие новости

Новости СМИ2

Главная страница сайта

Новости сайта

03.07.2017

Напоминаем, что на нашем специализированном сайте Метеоцентр.Азия вы можете получить высокодетализированные автоматические прогнозы погоды по пунктам России, СНГ и мира в авиационном формате (включающие направление и скорость ветра, видимость, явления погоды, количество и форму облачности, нижнюю и верхнюю границу облачности).

Рекомендуем: Лада с пробегом купить авто с пробегом.

Погода в Петруни - сегодня

Время (UTC), дата Ветер
(°,м/с) 
Видим.   Явления Облачность Т
(°С)
Тd
(°С)
f(%) Тe
(°С)
Pmin
(гПа)
dP
(гПа)
Po
(мм)
O2
(г/м3)
Тmin Tmax R s Состояние
почвы
09 12.08.18 260 (З) 35000 м    10/10 450 м 
[St]
+9.7 +6.7 82 +9  1001.4  0.3  746  289           
18 12.08.18 180 (Ю) 35000 м    9/0 средняя 
[Ac As]
+10.2 +8.5 89 +11  1001.1  -0.8  745  288           
03 13.08.18 240 (ЮЗ) 30000 м    9/9 270 м 
[St]
+13 +12.1 94 +17  999  -0.2  744  284  +10    0.1     
06 13.08.18 210 (ЮЗ) 35000 м    9/0 средняя 
[Ac As]
+15.4 +13.2 87 +23  997.8  -1.1  743  281           
09 13.08.18 150 (ЮВ) 30000 м  {дождь}  10/0 средняя 
[Ac As]
+16.2 +14.3 89 +25  996.7  -1.1  742  279           
15 13.08.18 240 (ЮЗ) 4{14}  9000 м  гроза, ливневой дождь  10/10 420 м кучево-дожд. 
[Cb cap]
+16.7 +13.7 82 +24  992.3  -1.5  739  278    +21.9  0.4     
21 13.08.18 180 (Ю) 30000 м  {гроза, ливн. осадки}  6/1 600 м кучево-дожд., средняя 
[Cb cap|Ac As]
+13.4 +11.5 88 +18  992.2  -0.7  739  282           
00 14.08.18 170 (Ю) 35000 м  {гроза, ливн. осадки}  3/0 средняя 
[Ac As]
+13.2 +11.3 88 +16  992  -0.2  739  282           
15 14.08.18 240 (ЮЗ) 4{13}  29000 м    10/10 800 м кучево-дожд. 
[Cb cap]
+10.1 +7.1 82 +9  1001.9  4.2  746  289    +15.6     
18 14.08.18 240 (ЮЗ) 27000 м    10/10 930 м 
[Sc]
+9.8 +7.6 86 +9  1003.9  747  289           
21 14.08.18 230 (ЮЗ) 26000 м    10/10 960 м 
[Sc]
+9 +7.3 89 +8  1005.9  1.9  749  291           
03 15.08.18 240 (ЮЗ) 35000 м    8/8 960 м кучево-дожд. 
[Cb cap]
+9.8 +4.6 70 +9  1008.4  1.1  751  291  +8.6         
06 15.08.18 260 (З) 40000 м    9/9 600 м кучево-дожд. 
[Cb cap]
+9.9 +5.3 73 +9  1009.6  1.2  752  291           
09 15.08.18 220 (ЮЗ) 40000 м    9/9 1000 м кучево-дожд. 
[Cb cap]
+12.3 +5.6 64 +12  1010  0.5  752  289           
18 15.08.18 200 (Ю) 28000 м    10/10 1470 м 
[Sc]
+9.9 +8.6 92 +11  1010.9  -0.1  753  291           
21 15.08.18 200 (Ю) 27000 м    10/10 1410 м 
[Sc]
+9 +8.1 94 +10  1010.7  -0.2  752  292           
03 16.08.18 220 (ЮЗ) 29000 м    10/10 270 м 
[St]
+9.2 +8.4 95 +9  1010.7  752  292  +8.5         
06 16.08.18 240 (ЮЗ) 30000 м    10/10 270 м 
[St]
+10.4 +9 91 +11  1011.2  0.5  753  291           
18 16.08.18 270 (З) 30000 м  {дождь}  9/9 1260 м 
[Sc]
+9.5 +8.5 93 +10  1012.7  0.1  754  292           
21 16.08.18 320 (СЗ) 29000 м    9/9 1260 м 
[Sc]
+8.3 +7.8 97 +8  1013.4  0.7  754  294           
06 17.08.18 290 (З) 30000 м    10/10 1080 м 
[Sc]
+8.6 +7.1 90 +10  1015.5  0.7  756  294           
09 17.08.18 300 (СЗ) 35000 м    8/8 1140 м 
[Sc]
+10.6 +6.1 74 +11  1016.3  0.8  757  292           
03 18.08.18 310 (СЗ) 29000 м    10/10 480 м 
[St]
+6.1 +5.2 94 +6  1021.9  0.6  761  299  +5.3    0.4     
06 18.08.18 330 (СЗ) 30000 м    10/10 600 м 
[St]
+7.1 +3.6 78 +8  1022.3  0.5  761  298           
09 18.08.18 190 (Ю) 35000 м    10/10 570 м 
[St]
+8.3 +4.6 77 +9  1022.3  761  297           
Время (UTC), дата Ветер
(°,м/с) 
Видим.   Явления Облачность Т
(°С)
Тd
(°С)
f(%) Тe
(°С)
Pmin
(гПа)
dP
(гПа)
Po
(мм)
O2
(г/м3)
Тmin Tmax R s Состояние
почвы

Для получения пояснительной информации подведите курсор к названию столбца.

ПОГОДА в Петруни - архив

Всё, что Вы хотите узнать о погоде в Петруни - удобно и подробно!

Выберите нужную дату (начиная с 1 января 2015* года) и нажмите кнопку "Найти".
Будут отображены архивные сводки погоды по пункту Петрунь, начиная с указанной даты.


Отображать данные в формате CSV (для использования в таблицах Excel)


Внимание! Наш архив погоды предназначен исключительно для личного некоммерческого использования в познавательных целях. Если Вам необходимы официальные справки о состоянии погоды (для производственных, юридических, коммерческих и т.п. целей), обращайтесь в органы Росгидромета.

*Примечание: данная дата относится к архиву по метеостанциям СССР (Россия, СНГ, Балтия).
Архив по метеостанциям Зарубежной Европы и Азии (кроме Китая) хранится 10 дней, по другим регионам земного шара (Китай, Африка, Америка, Австралия, Океания) - 1 день.

Петрунь - район местоположения метеостанции


Название, широта, долгота, высота метеостанции:
Петрунь 66.5°ш. 60.8°д. 58 м над ур. моря [Российская Федерация]

Дополнительная информация

В oтличие oт бoльшинства пoгoдных сайтoв мы публикуем пoдрoбную метеoинфoрмацию в детальнoм прoфессиoнальнoм фoрмате.

Характеристики температуры и влажнoсти вoздуха измеряются на высoте 2 м в тени вдали oт зданий и деревьев.
Скoрoсть ветра измеряется на высoте 10 м (на урoвне рoста челoвека скoрoсть ветра ниже в 1.5-2 раза). Если метеoстанция нахoдится в гoрoде или в лесу, тo скoрoсть ветра занижена на 2-4 м/с пo сравнению с oткрытым местoм. Скoрoсть ветра над акватoриями крупных рек и oзёр, а также на вершинах хoлмoв на 2-5 м/с выше, чем в oбычных услoвиях.
Атмoсфернoе давление в разных тoчках местнoсти мoжет значительнo oтличаться oт давления на метеoстанции, в зависимoсти oт услoвий рельефа (при пoдъёме на 10 м давление пoнижается примернo на 1 мм рт.ст.).